Date String (YYYY-MM-DD hh:mm:ss) UTC,Instrument flags,absolute air pressure of the measurement (hPa),sample flow rate (lpm),inlet stack bypass flow (lpm),air temperature of the measurement (°C),ambient temperature measured by the external sensor (°C),aerosol sample conditioner tube jacket temperature (°C),OPC LED temperature (°C),internal box temperature (°C),relative humidity of the measurement (%),span deviation,mass concentration of particles derived from Lorenz-Mie calculation of OPC scattering (μg/m³),mass concentration of particles derived from Lorenz-Mie calculation of OPC scattering (μg/m³),mass concentration of particles derived from Lorenz-Mie calculation of OPC scattering (μg/m³)
DateTimeUTC,F1_M11,P_M11,Q1_M11,Q2_M11,T1_M11,T2_M11,T3_M11,T4_M11,T5_M11,U1_M11,ZSPAN_M11,X0_M11,X2_M11,X1_M11
2023-06-15 06:00:00,SystemResetWarning,0826.3,5.00,000.00,029.8,026.0,000.0,038.5,031.1,26.0,0000.0,0009.94,0003.61,0002.92
2023-06-15 06:01:00,SystemResetWarning,0826.3,5.00,000.00,029.8,026.4,000.0,038.5,031.1,26.2,0000.0,0010.00,0003.65,0002.98
2023-06-15 06:02:00,SystemResetWarning,0826.3,5.00,000.00,029.8,026.7,000.0,038.5,031.2,26.2,0000.0,0009.67,0003.72,0003.06
2023-06-15 06:03:00,SystemResetWarning,0826.4,5.00,000.00,029.8,027.0,000.0,038.5,031.2,26.5,0000.0,0009.68,0003.76,0003.10
2023-06-15 06:04:00,SystemResetWarning,0826.4,5.00,000.00,029.8,027.2,000.0,038.4,031.2,26.4,0000.0,0009.82,0003.75,0003.12
2023-06-15 06:05:00,SystemResetWarning,0826.4,4.99,000.00,029.8,027.4,000.0,038.4,031.2,26.3,0000.0,0009.83,0003.76,0003.15
2023-06-15 06:06:00,SystemResetWarning,0826.3,4.99,000.00,029.8,027.6,000.0,038.4,031.3,26.1,0000.0,0010.27,0003.77,0003.17
2023-06-15 06:07:00,SystemResetWarning,0826.3,5.00,000.00,029.8,027.7,000.0,038.4,031.3,26.1,0000.0,0010.10,0003.78,0003.18
2023-06-15 06:08:00,SystemResetWarning,0826.3,5.00,000.00,029.8,027.8,000.0,038.4,031.3,25.9,0000.0,0009.38,0003.76,0003.18
2023-06-15 06:09:00,SystemResetWarning,0826.3,5.00,000.00,029.8,027.9,000.0,038.4,031.3,25.9,0000.0,0009.12,0003.75,0003.18
2023-06-15 06:10:00,SystemResetWarning,0826.3,5.01,000.00,029.8,028.0,000.0,038.4,031.3,25.8,0000.0,0008.99,0003.73,0003.15
2023-06-15 06:11:00,SystemResetWarning,0826.2,5.00,000.00,029.8,028.0,000.0,038.4,031.3,25.8,0000.0,0008.41,0003.71,0003.13
2023-06-15 06:12:00,SystemResetWarning,0826.2,5.00,000.00,029.8,028.1,000.0,038.4,031.3,25.9,0000.0,0008.16,0003.69,0003.11
2023-06-15 06:13:00,SystemResetWarning,0826.2,5.01,000.00,029.8,028.1,000.0,038.4,031.3,25.9,0000.0,0008.06,0003.65,0003.09
2023-06-15 06:14:00,SystemResetWarning,0826.2,5.00,000.00,029.8,028.1,000.0,038.4,031.3,25.8,0000.0,0008.39,0003.62,0003.04
2023-06-15 06:15:00,SystemResetWarning,0826.2,5.00,000.00,029.8,028.1,000.0,038.4,031.3,25.8,0000.0,0008.34,0003.62,0003.02
2023-06-15 06:16:00,SystemResetWarning,0826.2,5.00,000.00,029.8,028.2,000.0,038.4,031.3,25.9,0000.0,0008.81,0003.66,0003.04
2023-06-15 06:17:00,SystemResetWarning,0826.2,5.00,000.00,029.9,028.2,000.0,038.4,031.4,26.0,0000.0,0008.90,0003.70,0003.10
2023-06-15 06:18:00,SystemResetWarning,0826.1,5.00,000.00,029.9,028.2,000.0,038.4,031.4,26.0,0000.0,0008.58,0003.73,0003.12
2023-06-15 06:19:00,SystemResetWarning,0826.1,5.00,000.00,029.9,028.2,000.0,038.4,031.3,25.9,0000.0,0008.57,0003.73,0003.14
2023-06-15 06:20:00,SystemResetWarning,0826.0,4.99,000.00,029.9,028.2,000.0,038.4,031.3,25.8,0000.0,0008.61,0003.74,0003.17
2023-06-15 06:21:00,SystemResetWarning,0826.0,5.00,000.00,029.9,028.2,000.0,038.4,031.3,25.7,0000.0,0009.09,0003.74,0003.19
2023-06-15 06:22:00,SystemResetWarning,0825.9,5.00,000.00,029.9,028.2,000.0,038.4,031.3,25.5,0000.0,0009.39,0003.76,0003.22
2023-06-15 06:23:00,SystemResetWarning,0825.9,5.00,000.00,029.9,028.2,000.0,038.4,031.4,25.6,0000.0,0009.87,0003.77,0003.24
2023-06-15 06:24:00,SystemResetWarning,0825.9,5.00,000.00,029.9,028.2,000.0,038.4,031.4,25.5,0000.0,0009.91,0003.82,0003.25
2023-06-15 06:25:00,SystemResetWarning,0825.9,5.00,000.00,029.9,028.3,000.0,038.5,031.4,25.4,0000.0,0009.49,0003.83,0003.28
2023-06-15 06:26:00,SystemResetWarning,0825.9,5.00,000.00,029.9,028.3,000.0,038.5,031.4,25.1,0000.0,0009.36,0003.84,0003.29
2023-06-15 06:27:00,SystemResetWarning,0825.9,5.00,000.00,029.9,028.2,000.0,038.5,031.4,24.5,0000.0,0008.88,0003.82,0003.28
2023-06-15 06:28:00,SystemResetWarning,0825.9,5.00,000.00,029.9,028.2,000.0,038.5,031.4,22.9,0000.0,0008.38,0003.78,0003.25
2023-06-15 06:29:00,SystemResetWarning,0825.9,5.00,000.00,029.9,028.2,000.0,038.5,031.4,22.5,0000.0,0008.27,0003.73,0003.22
2023-06-15 06:30:00,SystemResetWarning,0825.9,5.00,000.00,029.9,028.2,000.0,038.5,031.4,23.4,0000.0,0008.27,0003.72,0003.21
2023-06-15 06:31:00,SystemResetWarning,0825.8,5.00,000.00,029.9,028.3,000.0,038.5,031.3,23.4,0000.0,0008.26,0003.71,0003.18
2023-06-15 06:32:00,SystemResetWarning,0825.8,5.00,000.00,029.9,028.3,000.0,038.5,031.4,22.8,0000.0,0007.94,0003.72,0003.16
2023-06-15 06:33:00,SystemResetWarning,0825.8,5.00,000.00,029.9,028.3,000.0,038.5,031.3,22.9,0000.0,0007.39,0003.68,0003.13
2023-06-15 06:34:00,SystemResetWarning,0825.8,5.00,000.00,029.9,028.2,000.0,038.5,031.3,23.2,0000.0,0006.90,0003.63,0003.10
2023-06-15 06:35:00,SystemResetWarning,0825.7,5.00,000.00,029.9,028.2,000.0,038.5,031.3,23.3,0000.0,0006.75,0003.55,0003.03
2023-06-15 06:36:00,SystemResetWarning,0825.7,5.00,000.00,029.9,028.2,000.0,038.5,031.3,23.3,0000.0,0006.42,0003.49,0002.96
2023-06-15 06:37:00,SystemResetWarning,0825.7,5.00,000.00,029.9,028.2,000.0,038.5,031.3,23.3,0000.0,0006.64,0003.46,0002.89
2023-06-15 06:38:00,SystemResetWarning,0825.6,5.00,000.00,029.9,028.2,000.0,038.5,031.3,23.4,0000.0,0006.84,0003.41,0002.82
2023-06-15 06:39:00,SystemResetWarning,0825.7,5.01,000.00,029.9,028.2,000.0,038.5,031.3,23.3,0000.0,0006.81,0003.34,0002.77
2023-06-15 06:40:00,SystemResetWarning,0825.6,5.00,000.00,029.9,028.2,000.0,038.5,031.3,23.6,0000.0,0006.96,0003.32,0002.73
2023-06-15 06:41:00,SystemResetWarning,0825.6,5.00,000.00,029.9,028.2,000.0,038.5,031.4,23.9,0000.0,0007.15,0003.32,0002.70
2023-06-15 06:42:00,SystemResetWarning,0825.6,5.00,000.00,029.9,028.2,000.0,038.5,031.3,24.0,0000.0,0007.83,0003.29,0002.67
2023-06-15 06:43:00,SystemResetWarning,0825.6,5.00,000.00,029.9,028.3,000.0,038.5,031.3,24.0,0000.0,0008.13,0003.26,0002.64
2023-06-15 06:44:00,SystemResetWarning,0825.6,5.00,000.00,030.0,028.3,000.0,038.5,031.4,24.1,0000.0,0008.40,0003.23,0002.63
2023-06-15 06:45:00,SystemResetWarning,0825.7,5.00,000.00,030.0,028.3,000.0,038.5,031.4,24.0,0000.0,0008.34,0003.21,0002.63
2023-06-15 06:46:00,SystemResetWarning,0825.7,5.00,000.00,030.0,028.3,000.0,038.5,031.4,24.1,0000.0,0008.81,0003.22,0002.66
2023-06-15 06:47:00,SystemResetWarning,0825.8,5.00,000.00,030.0,028.3,000.0,038.5,031.4,24.2,0000.0,0010.26,0003.18,0002.67
2023-06-15 06:48:00,SystemResetWarning,0825.8,5.00,000.00,030.0,028.3,000.0,038.5,031.4,24.2,0000.0,0010.27,0003.19,0002.67
2023-06-15 06:49:00,SystemResetWarning,0825.8,5.00,000.00,030.0,028.3,000.0,038.5,031.4,23.6,0000.0,0010.19,0003.24,0002.70
2023-06-15 06:50:00,SystemResetWarning,0825.9,5.00,000.00,030.0,028.3,000.0,038.6,031.4,23.1,0000.0,0010.28,0003.29,0002.72
2023-06-15 06:51:00,SystemResetWarning,0825.9,5.00,000.00,030.0,028.3,000.0,038.6,031.4,23.0,0000.0,0010.20,0003.31,0002.75
2023-06-15 06:52:00,SystemResetWarning,0825.9,5.00,000.00,030.0,028.3,000.0,038.5,031.4,23.1,0000.0,0010.57,0003.33,0002.76
2023-06-15 06:53:00,SystemResetWarning,0825.8,5.00,000.00,030.0,028.3,000.0,038.6,031.4,23.4,0000.0,0010.52,0003.33,0002.79
2023-06-15 06:54:00,SystemResetWarning,0825.9,5.00,000.00,030.0,028.3,000.0,038.6,031.4,23.2,0000.0,0010.26,0003.31,0002.81
2023-06-15 06:55:00,SystemResetWarning,0825.9,5.00,000.00,030.0,028.3,000.0,038.6,031.4,23.1,0000.0,0010.17,0003.34,0002.84
2023-06-15 06:56:00,SystemResetWarning,0825.9,5.00,000.00,030.0,028.3,000.0,038.6,031.4,23.0,0000.0,0010.11,0003.37,0002.85
2023-06-15 06:57:00,SystemResetWarning,0826.0,5.01,000.00,030.0,028.3,000.0,038.6,031.5,23.0,0000.0,0009.80,0003.40,0002.85
2023-06-15 06:58:00,SystemResetWarning,0826.0,5.00,000.00,030.0,028.3,000.0,038.6,031.5,23.2,0000.0,0008.71,0003.44,0002.87
2023-06-15 06:59:00,SystemResetWarning,0826.0,5.00,000.00,030.0,028.3,000.0,038.6,031.5,23.1,0000.0,0008.16,0003.49,0002.90
